Tracking 27382 objects as of 4-Jun-2023
HD Live streaming from Space Station
objects crossing your sky now

THOR ABLESTAR DEB

Track THOR ABLESTAR DEB now!
10-day predictions


NORAD ID: 408
Int'l Code: 1961-015EH
Perigee: 939.5 km
Apogee: 1,033.9 km
Inclination: 66.8 °
Period: 104.7 minutes
Semi major axis: 7357 km
RCS: 0.1296 m2 (medium)
Launch date: June 29, 1961
Source: United States (US)
Launch site: AIR FORCE EASTERN TEST RANGE (AFETR)

Note: This is SATELLITE DEBRIS
Your satellite tracking list
Your tracking list is empty




NASA's NSSDC Master Catalog

Two Line Element Set (TLE):
1 00408U 61015EH  23155.63649718  .00000242  00000-0  32270-3 0  9990
2 00408  66.7864 232.5132 0064121 160.8421 320.8178 13.75600176153133
Source of the keplerian elements: AFSPC